This demonstration page uses our WeatherBlox Daily Observations layout. Learn more.

Left ArrowRight Arrow

44.8408, -93.29828

Hourly Observations for July 10, 2016

Temp ( °F °C ) Dew Point ( °F °C ) Humidity (%) Winds ( mph kmh ) Pressure ( in mb ) Visibility ( mi km ) Precip ( " mm )
12:53 am 00:53 Mostly Cloudy 72 22.2 61 16.1 68 68 SSE 9 15 29.96 1015 10 16 0.00 0.00
1:53 am 01:53 Mostly Cloudy 71 21.7 61 16.1 71 71 SE 10 17 29.94 1014 10 16 0.00 0.00
2:53 am 02:53 Mostly Cloudy 71 21.7 61 16.1 71 71 SE 10 17 29.94 1014 10 16 0.00 0.00
3:53 am 03:53 Mostly Cloudy 71 21.7 61 16.1 71 71 SSE 13 20 29.92 1013 10 16 0.00 0.00
4:53 am 04:53 Mostly Cloudy with Light Rain 70 21.1 62 16.7 76 76 SSE 14 22 29.88 1012 10 16 0.00 0.03
5:23 am 05:23 Cloudy with Nearby Thunderstorms 71 21.7 62 16.7 73 73 W 24 39 29.94 1014 10 16 0.00 0.03
5:27 am 05:27 Mostly Cloudy with Thunderstorms 70 21.1 63 17.2 79 79 W 25 41 29.94 1014 10 16 0.01 0.25
5:35 am 05:35 Cloudy with Strong Thunderstorms 67 19.4 63 17.2 87 87 SW 12 19 29.94 1014 4 6 0.15 3.81
5:53 am 05:53 Cloudy with Thunderstorms 67 19.4 63 17.2 87 87 WSW 5 7 29.92 1013 4 6 0.20 5.08
6:04 am 06:04 Cloudy with Nearby Thunderstorms 67 19.4 64 17.8 91 91 SW 7 11 29.91 1013 9 14 0.01 0.25
6:11 am 06:11 Cloudy with Light Rain 66 18.9 63 17.2 90 90 S 6 9 29.91 1013 8 13 0.01 0.25
6:21 am 06:21 Mostly Cloudy with Nearby Thunderstorms 66 18.9 63 17.2 90 90 S 9 15 29.91 1013 5 8 0.04 1.02
6:53 am 06:53 Cloudy with Nearby Thunderstorms 66 18.9 64 17.8 93 93 SSE 13 20 29.85 1011 6 10 0.13 3.30
7:09 am 07:09 Cloudy with Light Rain 66 18.9 64 17.8 93 93 S 15 24 29.85 1011 8 13 0.02 0.51
7:44 am 07:44 Cloudy with Light Rain 66 19 64 18 94 94 S 16 26 29.83 1010 9 14 0.00 0.00
7:53 am 07:53 Cloudy with Light Rain 67 19.4 64 17.8 91 91 S 12 19 29.83 1010 10 16 0.07 1.78
8:16 am 08:16 Cloudy with Light Rain 66 19 64 18 94 94 S 9 15 29.85 1011 10 16 0.00 0.00
8:53 am 08:53 Cloudy 68 20 64 17.8 87 87 S 9 15 29.83 1010 10 16 0.00 0.03
9:53 am 09:53 Cloudy 70 21.1 64 17.8 82 82 S 7 11 29.83 1010 10 16 0.00 0.00
10:53 am 10:53 Mostly Cloudy 74 23.3 65 18.3 74 74 SSW 5 7 29.82 1010 10 16 0.00 0.00
11:09 am 11:09 Mostly Cloudy 75 23.9 64 17.8 69 69 VRB 3 6 29.83 1010 10 16 0.00 0.00
11:53 am 11:53 Cloudy 76 24.4 64 17.8 67 67 WSW 13 20 29.85 1011 10 16 0.00 0.00
12:47 pm 12:47 Cloudy 79 26 64 18 61 61 S 12 19 29.77 1008 10 16 0.00 0.00
12:53 pm 12:53 Cloudy 78 25.6 64 17.8 62 62 S 7 11 29.77 1008 10 16 0.00 0.00
1:53 pm 13:53 Cloudy 80 26.7 64 17.8 58 58 WSW 5 7 29.81 1009 10 16 0.00 0.00
2:53 pm 14:53 Mostly Cloudy 80 26.7 66 18.9 62 62 SE 10 17 29.79 1009 10 16 0.00 0.00
3:53 pm 15:53 Mostly Cloudy 80 26.7 65 18.3 60 60 S 9 15 29.80 1009 10 16 0.00 0.00
4:53 pm 16:53 Mostly Cloudy 80 26.7 66 18.9 62 62 S 6 9 29.82 1010 10 16 0.00 0.00
5:53 pm 17:53 Mostly Cloudy 81 27.2 65 18.3 58 58 VRB 6 9 29.81 1010 10 16 0.00 0.00
6:53 pm 18:53 Mostly Cloudy 81 27.2 65 18.3 58 58 SW 8 13 29.80 1009 10 16 0.00 0.00
7:53 pm 19:53 Mostly Cloudy 81 27.2 65 18.3 58 58 S 8 13 29.81 1009 10 16 0.00 0.00
8:53 pm 20:53 Mostly Cloudy 78 25.6 66 18.9 67 67 SSE 9 15 29.79 1009 10 16 0.00 0.00
9:53 pm 21:53 Partly Cloudy 76 24.4 67 19.4 74 74 SE 10 17 29.80 1009 10 16 0.00 0.00
10:53 pm 22:53 Cloudy 75 23.9 67 19.4 76 76 SSE 10 17 29.81 1010 10 16 0.00 0.00
11:53 pm 23:53 Cloudy 75 23.9 67 19.4 76 76 SE 8 13 29.80 1009 10 16 0.00 0.00

Powered by AerisWeather